Hourly Weather Roundup
Issued by NWS Central Illinois

Home | Current Version | Previous Version | Text Only | Print | Product List | Glossary On
Versions: 1 2 3 4 5 6 7 8 9 10 11 12 13 14 15 16 17 18 19 20 21 22 23 24 25 26 27 28 29 30 31 32 33 34 35 36 37 38 39 40 41 42 43 44 45 46 47 48 49 50
000
NZUS43 KILX 221210
HWRILX

AREA WEATHER ROUNDUP
NATIONAL WEATHER SERVICE, LINCOLN IL
700 AM CDT WED OCT 22 2014


CITY           SKY/WX    TMP DP  RH WIND       PRES   REMARKS
BLOOMINGTON    CLEAR     37  36  96 NE5       30.33R WCI  33
6HR MIN TEMP:  35; 6HR MAX TEMP:  42;

CHAMPAIGN      CLEAR     36  34  92 NE5       30.31R WCI  32
6HR MIN TEMP:  36; 6HR MAX TEMP:  44;

DECATUR        CLEAR     37  34  89 NE5       30.31R WCI  33
6HR MIN TEMP:  34; 6HR MAX TEMP:  40;

FLORA          CLEAR     39  38  94 CALM      30.30R
6HR MIN TEMP:  39; 6HR MAX TEMP:  46;

GALESBURG      PTCLDY    37  36  95 CALM      30.31R
JACKSONVILLE   CLEAR     37  36  95 E5        30.31R WCI  33
6HR MIN TEMP:  36; 6HR MAX TEMP:  42;

LACON          CLEAR     32  31  97 CALM      30.32S FOG
6HR MIN TEMP:  31; 6HR MAX TEMP:  36;

LAWRENCEVILLE  CLEAR     41  39  93 NE7       30.29R
6HR MIN TEMP:  41; 6HR MAX TEMP:  46;

LITCHFIELD     CLEAR     39  37  89 NE5       30.29R
$$


CITY           SKY/WX    TMP DP  RH WIND       PRES   REMARKS
LINCOLN        CLEAR     35  34  96 CALM      30.31S
6HR MIN TEMP:  35; 6HR MAX TEMP:  40;

MACOMB         FOG       31  31 100 CALM      30.33S VSB 3/4
MATTOON        CLEAR     36  34  92 NE3       30.30R
6HR MIN TEMP:  35; 6HR MAX TEMP:  42;

MT CARMEL AP   CLEAR     41  39  93 CALM      30.28R
OLNEY-NOBLE AP CLEAR     37  37 100 CALM      30.30R
PARIS          CLEAR     37  37  97 CALM      30.31R
6HR MIN TEMP:  37; 6HR MAX TEMP:  42;

PEORIA         CLEAR     39  35  86 NE5       30.32R
6HR MIN TEMP:  38; 6HR MAX TEMP:  43;

PONTIAC        FOG       32  32 100 CALM      30.34R VSB 3/4
RANTOUL        CLEAR     40  34  81 NE3       30.32R
6HR MIN TEMP:  40; 6HR MAX TEMP:  50;

ROBINSON       CLEAR     38  38 100 N3        30.31R
6HR MIN TEMP:  37; 6HR MAX TEMP:  44;

SPRINGFIELD    CLEAR     35  33  92 NE5       30.31R WCI  31
6HR MIN TEMP:  35; 6HR MAX TEMP:  42;

TAYLORVILLE    FAIR      34  34 100 N3        30.31R FOG
$$

...REGIONAL REPORTS...


CITY           SKY/WX    TMP DP  RH WIND       PRES   REMARKS
CHICAGO O`HARE PTCLDY    41  38  89 NW5       30.32R
KANKAKEE       CLEAR     34  33  99 NE3       30.34R
MOLINE         PTCLDY    34  31  88 E3        30.32R
MOUNT VERNON   CLEAR     39  36  87 NE3       30.29R
PITTSFIELD     CLEAR     38  37  96 NE3       30.30F FOG
QUINCY         CLEAR     40  37  89 E6        30.29R
ROCKFORD       CLEAR     33  30  88 CALM      30.35R
$$


CITY           SKY/WX    TMP DP  RH WIND       PRES   REMARKS
BURLINGTON     CLEAR     40  37  89 E6        30.30R
CEDAR RAPIDS   CLEAR     34  34 100 E7        30.29R WCI  28
DES MOINES     PTCLDY    44  38  79 SE10      30.23R
KIRKSVILLE     CLEAR     40  39  97 E8        30.27R WCI  34
OTTUMWA        NOT AVBL
ST LOUIS       CLEAR     43  38  82 CALM      30.30R
$$


CITY           SKY/WX    TMP DP  RH WIND       PRES   REMARKS
TERRE HAUTE    CLEAR     36  34  92 NE5       30.30R WCI  32
EVANSVILLE     CLEAR     43  40  89 N5        30.28R
INDIANAPOLIS   PTCLDY    38  34  85 N7        30.28S WCI  33
LAFAYETTE      CLEAR     34  34 100 N3        30.31R
MADISON        FOG       29  27  92 CALM      30.35R VSB 1/2
MILWAUKEE      PTCLDY    35  32  88 CALM      30.34R
$$





USA.gov is the U.S. government's official web portal to all federal, state and local government web resources and services.